Vorticity
15 14 13 11 11 9 6 7 4 14 16 15 12 11 10 9 8 7 6 6 5 5 5 6 7 6 6 7 7 8 8 8 10 11 10 10 8 7 9 12 14 12 17
14 12 10 11 10 6 6 4 8 4 2 3 6 9 9 7 6 6 6 6 6 7 6 5 4 5 6 5 3 5 8 7 8 10 12 10 8 8 8 15 12 12 9
12 11 10 10 7 6 6 5 3 -1 1 3 4 5 6 7 7 7 8 8 8 9 9 10 10 9 8 8 5 2 5 8 8 9 10 10 8 8 8 12 5 7 8
11 9 8 8 7 6 4 5 3 2 3 5 5 6 6 7 7 7 6 6 6 7 11 12 11 13 11 10 9 4 4 8 8 8 8 7 7 7 10 6 11 7 5
8 8 8 8 7 6 6 4 3 4 5 5 6 6 7 7 7 6 3 1 -1 -3 -4 2 10 11 11 12 10 9 10 10 8 6 10 8 6 6 5 6 12 10 7
8 8 8 8 7 6 4 3 3 5 6 7 7 9 12 12 11 9 12 12 10 8 9 4 6 8 9 9 9 9 9 9 9 7 8 9 9 6 5 5 4 9 15
8 7 6 5 5 5 5 5 6 7 6 5 9 10 10 10 9 10 11 11 11 10 10 9 8 8 8 8 9 10 10 9 9 8 8 8 8 9 7 5 6 6 6
8 6 6 6 6 5 4 5 6 3 5 9 10 8 6 3 4 6 9 10 10 9 9 8 8 8 8 9 9 10 10 10 10 10 9 8 7 8 8 7 6 6 5
7 8 7 8 8 7 5 6 2 5 9 12 9 7 5 2 3 7 11 12 11 11 10 9 9 10 10 10 10 10 10 11 11 10 10 10 8 8 8 8 7 7 6
9 10 11 6 6 6 7 2 1 7 13 14 9 6 4 1 4 9 11 10 9 10 10 10 11 11 11 11 11 11 11 10 10 10 10 10 10 9 9 8 8 7 7
11 5 2 6 4 6 7 1 -2 5 17 7 6 7 6 4 6 10 12 10 10 9 9 9 9 10 10 10 10 10 10 11 11 10 10 10 9 10 10 9 8 8 8
0 -4 8 13 8 2 4 3 5 9 9 7 5 5 1 1 2 9 11 10 9 8 8 9 9 9 9 9 10 10 10 10 11 11 12 11 10 10 10 9 9 9 8
9 10 9 10 8 6 2 4 5 10 4 6 5 3 2 3 7 12 11 9 9 8 9 8 8 9 9 9 9 9 9 10 11 10 10 11 12 12 11 11 10 9 9
13 7 11 7 8 5 1 5 5 9 4 4 4 1 1 5 10 13 12 10 9 9 8 8 8 8 8 7 7 8 8 9 9 10 11 11 11 12 13 13 13 12 10
10 17 10 9 6 4 4 4 3 9 5 4 1 -1 7 7 14 15 12 11 10 10 9 8 8 8 8 7 7 7 7 7 8 7 8 9 9 10 11 11 12 13 14
12 16 17 9 9 8 5 2 9 5 4 1 -2 7 7 12 13 12 12 12 11 10 10 9 9 8 7 7 7 8 7 7 7 7 6 6 7 7 7 9 12 11 13
18 23 19 15 12 8 3 10 4 3 1 -2 3 6 7 9 11 13 12 11 10 9 7 6 8 10 10 11 12 13 13 14 13 12 11 10 9 9 7 7 8 10 12
-3 -1 6 10 7 7 4 1 1 1 1 4 7 8 11 18 18 16 13 11 10 9 9 10 13 14 13 12 11 10 9 8 7 7 8 8 7 7 6 7 6 4 6
11 11 12 12 5 3 3 5 4 2 4 6 9 11 19 16 13 13 13 12 11 13 14 13 10 7 5 4 5 5 5 6 7 8 7 8 8 7 8 6 5 2 4
1 3 6 5 4 2 3 2 8 14 5 12 13 8 16 14 13 13 13 11 11 10 8 6 6 6 7 10 10 11 11 12 9 7 6 4 -2 2 3 5 8 11 5
8 9 5 5 11 15 15 13 4 7 12 16 10 3 13 14 9 8 8 9 9 8 8 10 10 11 10 6 5 6 6 5 6 5 5 6 7 7 11 12 10 14 11
15 16 19 19 12 13 9 7 11 9 13 15 9 15 10 8 8 8 9 9 11 11 11 10 8 6 6 6 4 3 6 5 4 4 7 10 10 9 10 12 18 15 15
11 9 10 10 13 18 25 23 22 12 7 8 9 12 15 13 12 12 7 6 4 4 6 6 7 8 7 7 5 3 1 4 9 9 12 15 21 24 23 23 20 18 18
10 9 8 11 10 10 2 14 7 4 10 13 10 8 8 8 8 7 8 9 10 8 4 2 -0 0 1 2 3 11 15 16 18 21 16 14 15 16 15 12 13 17 17
16 17 15 12 10 4 12 10 10 12 8 9 8 9 9 6 5 3 1 1 1 1 9 11 13 19 20 25 24 20 19 21 17 13 12 12 12 11 9 9 9 10 11
12 7 9 10 11 9 10 11 5 7 4 4 2 1 -0 1 7 12 17 9 15 13 8 15 17 17 16 17 18 19 14 11 12 11 10 11 10 8 9 8 8 9 12
Height
3137 3136 3135 3135 3136 3136 3135 3135 3134 3133 3131 3128 3126 3123 3121 3120 3118 3116 3114 3112 3110 3108 3105 3102 3099 3097 3094 3091 3088 3086 3082 3078 3075 3072 3069 3064 3061 3058 3053 3046 3040 3033 3027
3134 3133 3133 3133 3133 3133 3133 3133 3132 3131 3129 3127 3124 3122 3119 3117 3115 3113 3111 3109 3106 3104 3101 3098 3095 3093 3089 3085 3083 3081 3078 3074 3071 3068 3065 3064 3060 3055 3050 3046 3039 3034 3029
3131 3131 3130 3130 3131 3131 3131 3131 3130 3128 3126 3124 3122 3120 3117 3114 3112 3110 3107 3105 3103 3100 3097 3093 3090 3087 3084 3080 3077 3075 3073 3070 3066 3062 3060 3058 3056 3053 3049 3044 3039 3034 3031
3128 3128 3128 3128 3128 3129 3129 3128 3127 3125 3123 3121 3119 3117 3114 3112 3109 3107 3104 3101 3098 3095 3092 3089 3086 3082 3079 3075 3073 3070 3067 3064 3061 3057 3054 3051 3049 3048 3046 3042 3040 3034 3031
3126 3126 3125 3125 3126 3126 3125 3124 3123 3122 3120 3118 3116 3113 3111 3108 3105 3103 3100 3097 3094 3091 3088 3085 3081 3077 3073 3070 3068 3065 3063 3060 3057 3053 3051 3047 3044 3043 3041 3040 3039 3035 3032
3123 3123 3123 3123 3123 3123 3122 3121 3120 3118 3116 3114 3112 3109 3107 3104 3101 3098 3095 3092 3089 3086 3082 3079 3076 3072 3068 3066 3063 3060 3057 3054 3052 3049 3047 3044 3042 3040 3037 3036 3035 3034 3032
3120 3121 3121 3120 3120 3120 3119 3118 3116 3114 3112 3110 3108 3105 3103 3100 3097 3094 3090 3087 3084 3080 3076 3073 3069 3066 3063 3060 3057 3055 3052 3049 3047 3044 3042 3039 3037 3036 3034 3032 3031 3030 3030
3118 3118 3118 3118 3117 3117 3116 3114 3113 3111 3109 3106 3103 3100 3098 3095 3092 3088 3084 3081 3077 3074 3070 3067 3063 3060 3057 3054 3052 3049 3046 3044 3040 3038 3036 3034 3032 3030 3029 3027 3027 3027 3026
3114 3115 3115 3115 3114 3113 3112 3110 3109 3107 3104 3101 3098 3096 3093 3090 3087 3083 3079 3075 3071 3067 3064 3060 3057 3054 3052 3049 3046 3043 3040 3037 3035 3032 3030 3028 3026 3025 3023 3022 3020 3020 3020
3112 3112 3111 3111 3110 3109 3107 3106 3104 3102 3099 3095 3093 3091 3088 3085 3081 3077 3073 3068 3064 3061 3058 3055 3052 3049 3046 3043 3041 3038 3035 3032 3029 3026 3024 3021 3020 3018 3017 3016 3015 3014 3013
3109 3108 3108 3106 3105 3104 3103 3101 3099 3096 3093 3091 3088 3085 3082 3079 3075 3070 3066 3062 3058 3055 3052 3049 3046 3043 3040 3037 3035 3032 3029 3026 3023 3020 3018 3016 3013 3012 3010 3009 3008 3006 3006
3106 3104 3103 3102 3100 3099 3097 3095 3092 3090 3087 3085 3082 3079 3076 3072 3068 3064 3060 3056 3053 3049 3046 3043 3040 3037 3034 3031 3029 3026 3023 3020 3017 3014 3012 3010 3007 3006 3004 3002 3001 3000 2998
3099 3097 3097 3096 3094 3092 3091 3089 3086 3084 3081 3079 3076 3072 3069 3065 3061 3058 3054 3050 3046 3043 3040 3036 3034 3031 3028 3025 3023 3020 3017 3014 3011 3009 3006 3003 3001 2999 2996 2995 2994 2992 2990
3090 3090 3090 3089 3088 3086 3084 3082 3080 3078 3076 3073 3070 3066 3062 3058 3054 3050 3046 3043 3039 3036 3032 3029 3026 3023 3021 3018 3016 3013 3010 3008 3005 3002 3000 2997 2995 2992 2989 2987 2986 2984 2982
3084 3083 3083 3083 3082 3080 3078 3077 3075 3073 3070 3066 3062 3059 3055 3051 3047 3042 3038 3035 3031 3027 3024 3021 3018 3015 3013 3011 3009 3007 3004 3002 2999 2996 2994 2991 2988 2985 2983 2980 2978 2976 2974
3078 3076 3076 3076 3075 3074 3072 3070 3068 3065 3062 3058 3055 3050 3047 3043 3038 3034 3030 3026 3023 3020 3016 3013 3011 3008 3006 3004 3001 2999 2996 2994 2991 2989 2986 2984 2981 2978 2976 2973 2971 2969 2966
3073 3072 3071 3070 3069 3067 3065 3063 3060 3057 3054 3050 3046 3042 3038 3034 3029 3025 3021 3017 3014 3011 3008 3005 3002 3000 2996 2994 2992 2989 2987 2985 2982 2980 2978 2976 2973 2970 2968 2966 2964 2961 2959
3069 3068 3066 3064 3061 3059 3056 3054 3050 3047 3043 3039 3035 3031 3027 3024 3020 3016 3012 3008 3005 3001 2999 2996 2994 2991 2988 2985 2983 2980 2978 2976 2974 2971 2969 2967 2965 2961 2958 2957 2955 2953 2950
3063 3061 3058 3056 3053 3050 3047 3044 3040 3036 3032 3028 3025 3021 3017 3012 3008 3005 3001 2998 2995 2992 2989 2987 2984 2981 2980 2976 2973 2970 2968 2966 2964 2962 2960 2957 2955 2953 2949 2946 2944 2943 2942
3056 3053 3051 3048 3044 3040 3035 3032 3028 3024 3021 3015 3012 3009 3005 3001 2998 2995 2992 2988 2985 2982 2979 2977 2974 2971 2969 2967 2963 2959 2956 2955 2953 2952 2949 2946 2944 2941 2939 2935 2932 2931 2931
3045 3042 3039 3036 3032 3028 3024 3020 3015 3013 3008 3004 3002 2998 2994 2990 2987 2985 2983 2979 2976 2971 2969 2966 2963 2960 2958 2955 2952 2949 2944 2941 2938 2937 2936 2934 2931 2928 2925 2922 2919 2917 2915
3034 3030 3026 3023 3019 3017 3013 3010 3006 3001 2997 2994 2990 2987 2984 2981 2978 2974 2973 2969 2965 2961 2958 2955 2952 2951 2948 2944 2942 2938 2934 2929 2925 2923 2921 2919 2917 2914 2911 2908 2904 2901 2898
3022 3018 3014 3011 3008 3006 3002 2998 2995 2989 2986 2982 2980 2976 2972 2970 2967 2963 2961 2959 2956 2951 2946 2943 2940 2938 2936 2933 2929 2925 2921 2917 2912 2909 2905 2903 2902 2900 2897 2894 2891 2887 2883
3012 3008 3004 3001 2998 2995 2991 2987 2985 2979 2974 2970 2968 2965 2961 2958 2956 2953 2950 2946 2944 2940 2934 2930 2927 2923 2919 2918 2916 2910 2905 2902 2898 2894 2890 2889 2887 2885 2883 2881 2879 2876 2872
3002 2997 2992 2990 2988 2985 2981 2978 2976 2970 2963 2960 2956 2953 2950 2946 2942 2940 2937 2934 2931 2927 2921 2917 2912 2907 2903 2903 2899 2895 2891 2888 2885 2879 2877 2876 2874 2871 2870 2867 2865 2863 2860
2992 2988 2984 2979 2977 2973 2969 2967 2964 2958 2953 2948 2945 2941 2937 2933 2928 2925 2921 2921 2915 2913 2908 2903 2898 2893 2889 2886 2885 2882 2878 2873 2871 2865 2864 2863 2862 2859 2857 2854 2851 2848 2845